| time (UTC) | temp F | wind direction | speed knots | gust knots | rain 1hr in | rain 24hr in | rain mn in | humidity % | barometer mb |
| 20260504030445 | 44 | 232 | 0.9 | 2.6 | 0.00 | 0.00 | 0.00 | 75 | 1012.6 |
| 20260504025941 | 44 | 37 | 0.0 | 1.7 | 0.00 | 0.00 | 0.00 | 72 | 1012.5 |
| 20260504025438 | 44 | 44 | 0.0 | 0.9 | 0.00 | 0.00 | 0.00 | 70 | 1012.5 |
| 20260504024935 | 43 | 44 | 0.0 | 1.7 | 0.00 | 0.00 | 0.00 | 72 | 1012.4 |
| 20260504024432 | 43 | 34 | 0.0 | 0.9 | 0.00 | 0.00 | 0.00 | 73 | 1012.6 |
| 20260504023929 | 43 | 150 | 0.0 | 0.9 | 0.00 | 0.00 | 0.00 | 74 | 1012.5 |
| 20260504023425 | 44 | 148 | 0.0 | 0.9 | 0.00 | 0.00 | 0.00 | 73 | 1013.0 |
| 20260504022921 | 44 | 49 | 0.0 | 1.7 | 0.00 | 0.00 | 0.00 | 73 | 1012.8 |
| 20260504022418 | 45 | 104 | 0.0 | 0.9 | 0.00 | 0.00 | 0.00 | 70 | 1013.0 |
| 20260504021915 | 46 | 74 | 0.0 | 0.9 | 0.00 | 0.00 | 0.00 | 68 | 1013.0 |
| 20260504021412 | 46 | 68 | 0.0 | 0.9 | 0.00 | 0.00 | 0.00 | 66 | 1012.7 |
| 20260504020909 | 46 | 89 | 0.0 | 0.9 | 0.00 | 0.00 | 0.00 | 64 | 1012.8 |
| 20260504020405 | 47 | 121 | 0.9 | 0.9 | 0.00 | 0.00 | 0.00 | 63 | 1012.7 |
| 20260504015902 | 46 | 119 | 0.0 | 0.9 | 0.00 | 0.00 | 0.00 | 63 | 1012.8 |
| 20260504015358 | 47 | 126 | 0.0 | 0.9 | 0.00 | 0.00 | 0.00 | 63 | 1012.7 |
| 20260504014854 | 47 | 141 | 0.0 | 0.9 | 0.00 | 0.00 | 0.00 | 64 | 1012.8 |
| 20260504014350 | 48 | 180 | 0.0 | 0.0 | 0.00 | 0.00 | 0.00 | 61 | 1013.0 |
| 20260504013848 | 48 | 129 | 0.0 | 0.9 | 0.00 | 0.00 | 0.00 | 61 | 1012.8 |
| 20260504013345 | 48 | 129 | 0.0 | 0.9 | 0.00 | 0.00 | 0.00 | 59 | 1012.7 |
| 20260504012842 | 48 | 129 | 0.0 | 0.9 | 0.00 | 0.00 | 0.00 | 58 | 1012.7 |
| 20260504012340 | 49 | 104 | 0.0 | 0.9 | 0.00 | 0.00 | 0.00 | 57 | 1012.6 |
| 20260504011837 | 49 | 76 | 0.0 | 0.0 | 0.00 | 0.00 | 0.00 | 57 | 1012.7 |
| 20260504011333 | 50 | 129 | 0.0 | 0.9 | 0.00 | 0.00 | 0.00 | 55 | 1012.5 |
| 20260504010829 | 50 | 334 | 0.0 | 1.7 | 0.00 | 0.00 | 0.00 | 56 | 1012.5 |
| 20260504010325 | 50 | 77 | 0.9 | 1.7 | 0.00 | 0.00 | 0.00 | 53 | 1012.7 |
| 20260504005822 | 51 | 48 | 0.0 | 1.7 | 0.00 | 0.00 | 0.00 | 53 | 1012.5 |
| 20260504005319 | 51 | 19 | 0.0 | 0.0 | 0.00 | 0.00 | 0.00 | 53 | 1012.6 |
| 20260504004816 | 51 | 114 | 0.0 | 1.7 | 0.00 | 0.00 | 0.00 | 52 | 1012.5 |
| 20260504004314 | 52 | 46 | 0.0 | 0.9 | 0.00 | 0.00 | 0.00 | 51 | 1012.5 |
| 20260504003810 | 52 | 113 | 0.0 | 0.9 | 0.00 | 0.00 | 0.00 | 49 | 1012.5 |
| 20260504003307 | 53 | 142 | 0.0 | 0.9 | 0.00 | 0.00 | 0.00 | 50 | 1012.5 |
| 20260504002803 | 54 | 124 | 0.0 | 1.7 | 0.00 | 0.00 | 0.00 | 48 | 1012.5 |
| 20260504002301 | 54 | 18 | 0.9 | 2.6 | 0.00 | 0.00 | 0.00 | 47 | 1012.5 |
| 20260504001758 | 54 | 318 | 0.0 | 2.6 | 0.00 | 0.00 | 0.00 | 46 | 1012.6 |
| 20260504001255 | 54 | 177 | 1.7 | 2.6 | 0.00 | 0.00 | 0.00 | 46 | 1012.7 |
| 20260504000752 | 55 | 169 | 1.7 | 2.6 | 0.00 | 0.00 | 0.00 | 46 | 1012.5 |
| 20260504000249 | 55 | 343 | 0.0 | 1.7 | 0.00 | 0.00 | 0.00 | 48 | 1012.6 |
| 20260503235747 | 55 | 0 | 0.0 | 1.7 | 0.00 | 0.00 | 0.00 | 45 | 1012.6 |
| 20260503235244 | 55 | 134 | 0.0 | 3.5 | 0.00 | 0.00 | 0.00 | 44 | 1012.6 |
| 20260503234741 | 55 | 147 | 1.7 | 3.5 | 0.00 | 0.00 | 0.00 | 45 | 1012.6 |
| 20260503234240 | 56 | 129 | 0.0 | 1.7 | 0.00 | 0.00 | 0.00 | 46 | 1012.5 |
| 20260503233736 | 56 | 131 | 0.0 | 3.5 | 0.00 | 0.00 | 0.00 | 44 | 1012.5 |
| 20260503233232 | 56 | 162 | 0.0 | 1.7 | 0.00 | 0.00 | 0.00 | 44 | 1012.4 |
| 20260503232729 | 57 | 171 | 1.7 | 4.3 | 0.00 | 0.00 | 0.00 | 42 | 1012.6 |
| 20260503232226 | 57 | 307 | 1.7 | 2.6 | 0.00 | 0.00 | 0.00 | 42 | 1012.6 |
| 20260503231725 | 57 | 198 | 0.9 | 4.3 | 0.00 | 0.00 | 0.00 | 42 | 1012.6 |
| 20260503231221 | 57 | 186 | 0.9 | 3.5 | 0.00 | 0.00 | 0.00 | 42 | 1012.6 |
| 20260503230716 | 57 | 192 | 1.7 | 5.2 | 0.00 | 0.00 | 0.00 | 41 | 1012.6 |
| 20260503230215 | 57 | 350 | 1.7 | 5.2 | 0.00 | 0.00 | 0.00 | 42 | 1012.7 |
| 20260503225712 | 58 | 15 | 0.9 | 8.7 | 0.00 | 0.00 | 0.00 | 41 | 1012.5 |
| 20260503225212 | 58 | 148 | 0.9 | 4.3 | 0.00 | 0.00 | 0.00 | 41 | 1012.6 |
| 20260503224709 | 57 | 259 | 0.9 | 3.5 | 0.00 | 0.00 | 0.00 | 42 | 1012.4 |
| 20260503224207 | 58 | 162 | 2.6 | 6.1 | 0.00 | 0.00 | 0.00 | 39 | 1012.6 |
| 20260503223704 | 58 | 87 | 0.9 | 1.7 | 0.00 | 0.00 | 0.00 | 41 | 1013.0 |
| 20260503223202 | 58 | 205 | 1.7 | 5.2 | 0.00 | 0.00 | 0.00 | 40 | 1012.7 |
| 20260503222658 | 58 | 100 | 1.7 | 7.8 | 0.00 | 0.00 | 0.00 | 39 | 1012.7 |
| 20260503222156 | 58 | 201 | 4.3 | 7.8 | 0.00 | 0.00 | 0.00 | 39 | 1012.8 |
| 20260503221654 | 59 | 5 | 2.6 | 3.5 | 0.00 | 0.00 | 0.00 | 42 | 1012.7 |
| 20260503221151 | 59 | 207 | 4.3 | 5.2 | 0.00 | 0.00 | 0.00 | 39 | 1012.7 |
| 20260503220648 | 58 | 185 | 1.7 | 3.5 | 0.00 | 0.00 | 0.00 | 39 | 1012.7 |
| 20260503220144 | 59 | 342 | 0.0 | 2.6 | 0.00 | 0.00 | 0.00 | 39 | 1012.7 |
| 20260503215642 | 59 | 216 | 1.7 | 7.8 | 0.00 | 0.00 | 0.00 | 38 | 1012.7 |
| 20260503215138 | 60 | 166 | 0.0 | 2.6 | 0.00 | 0.00 | 0.00 | 39 | 1012.7 |
| 20260503214637 | 61 | 350 | 2.6 | 5.2 | 0.00 | 0.00 | 0.00 | 37 | 1012.7 |
| 20260503214132 | 59 | 291 | 0.9 | 5.2 | 0.00 | 0.00 | 0.00 | 38 | 1012.7 |
| 20260503213632 | 60 | 189 | 3.5 | 6.1 | 0.00 | 0.00 | 0.00 | 35 | 1012.7 |
| 20260503213127 | 63 | 267 | 0.0 | 6.1 | 0.00 | 0.00 | 0.00 | 34 | 1012.3 |
| 20260503212626 | 65 | 7 | 1.7 | 5.2 | 0.00 | 0.00 | 0.00 | 35 | 1012.4 |
| 20260503212123 | 62 | 180 | 0.9 | 4.3 | 0.00 | 0.00 | 0.00 | 36 | 1012.5 |
| 20260503211621 | 60 | 193 | 0.9 | 2.6 | 0.00 | 0.00 | 0.00 | 39 | 1012.4 |
| 20260503211116 | 58 | 8 | 2.6 | 10.4 | 0.00 | 0.00 | 0.00 | 39 | 1012.5 |
| 20260503210612 | 61 | 189 | 4.3 | 5.2 | 0.00 | 0.00 | 0.00 | 36 | 1012.7 |
| 20260503210109 | 61 | 177 | 2.6 | 7.0 | 0.00 | 0.00 | 0.00 | 36 | 1012.7 |
| 20260503205604 | 60 | 264 | 0.9 | 5.2 | 0.00 | 0.00 | 0.00 | 37 | 1012.8 |
| 20260503205101 | 62 | 6 | 3.5 | 7.8 | 0.00 | 0.00 | 0.00 | 37 | 1012.8 |
| 20260503204558 | 60 | 193 | 4.3 | 6.1 | 0.00 | 0.00 | 0.00 | 39 | 1013.0 |
| 20260503204055 | 60 | 200 | 2.6 | 7.0 | 0.00 | 0.00 | 0.00 | 36 | 1013.0 |
| 20260503203552 | 61 | 194 | 1.7 | 4.3 | 0.00 | 0.00 | 0.00 | 41 | 1012.7 |
| 20260503203049 | 60 | 154 | 0.0 | 3.5 | 0.00 | 0.00 | 0.00 | 38 | 1013.1 |
| 20260503202547 | 61 | 190 | 2.6 | 5.2 | 0.00 | 0.00 | 0.00 | 37 | 1013.1 |
| 20260503202045 | 60 | 250 | 0.9 | 7.8 | 0.00 | 0.00 | 0.00 | 38 | 1013.2 |
| 20260503201543 | 59 | 22 | 1.7 | 9.6 | 0.00 | 0.00 | 0.00 | 39 | 1013.4 |
| 20260503201040 | 60 | 171 | 5.2 | 7.8 | 0.00 | 0.00 | 0.00 | 35 | 1013.1 |
| 20260503200536 | 62 | 167 | 2.6 | 4.3 | 0.00 | 0.00 | 0.00 | 36 | 1013.3 |
| 20260503200033 | 60 | 121 | 0.9 | 4.3 | 0.00 | 0.00 | 0.00 | 38 | 1013.4 |
| 20260503195530 | 61 | 242 | 0.0 | 5.2 | 0.00 | 0.00 | 0.00 | 37 | 1013.3 |
| 20260503195027 | 61 | 186 | 3.5 | 6.1 | 0.00 | 0.00 | 0.00 | 35 | 1013.6 |
| 20260503194524 | 59 | 205 | 2.6 | 8.7 | 0.00 | 0.00 | 0.00 | 37 | 1013.7 |
| 20260503194023 | 60 | 280 | 0.0 | 5.2 | 0.00 | 0.00 | 0.00 | 36 | 1013.8 |
| 20260503193520 | 60 | 293 | 2.6 | 9.6 | 0.00 | 0.00 | 0.00 | 35 | 1013.7 |
| 20260503193010 | 61 | 15 | 4.3 | 6.1 | 0.00 | 0.00 | 0.00 | 35 | 1013.9 |
| 20260503192507 | 60 | 333 | 3.5 | 7.0 | 0.00 | 0.00 | 0.00 | 38 | 1013.9 |
| 20260503192003 | 62 | 356 | 4.3 | 9.6 | 0.00 | 0.00 | 0.00 | 35 | 1013.9 |
| 20260503191500 | 61 | 352 | 3.5 | 7.0 | 0.00 | 0.00 | 0.00 | 38 | 1014.2 |
| 20260503190956 | 64 | 352 | 6.1 | 8.7 | 0.00 | 0.00 | 0.00 | 37 | 1014.0 |
| 20260503190454 | 64 | 348 | 2.6 | 11.3 | 0.00 | 0.00 | 0.00 | 34 | 1014.1 |
| 20260503185951 | 60 | 242 | 1.7 | 7.0 | 0.00 | 0.00 | 0.00 | 39 | 1014.0 |
| 20260503185447 | 61 | 349 | 3.5 | 7.0 | 0.00 | 0.00 | 0.00 | 36 | 1014.4 |
| 20260503184946 | 60 | 182 | 5.2 | 13.9 | 0.00 | 0.00 | 0.00 | 38 | 1014.5 |
| 20260503184443 | 59 | 189 | 2.6 | 6.1 | 0.00 | 0.00 | 0.00 | 40 | 1014.4 |
| 20260503183939 | 59 | 290 | 0.9 | 7.0 | 0.00 | 0.00 | 0.00 | 43 | 1014.4 |
| 20260503183436 | 58 | 354 | 1.7 | 6.1 | 0.00 | 0.00 | 0.00 | 40 | 1014.6 |
| 20260503182933 | 57 | 180 | 2.6 | 6.1 | 0.00 | 0.00 | 0.00 | 41 | 1014.6 |
| 20260503182432 | 59 | 204 | 0.9 | 7.0 | 0.00 | 0.00 | 0.00 | 42 | 1014.4 |
| 20260503181929 | 58 | 15 | 2.6 | 4.3 | 0.00 | 0.00 | 0.00 | 40 | 1014.6 |
| 20260503181426 | 57 | 317 | 1.7 | 5.2 | 0.00 | 0.00 | 0.00 | 40 | 1014.8 |
| 20260503180922 | 58 | 243 | 1.7 | 6.1 | 0.00 | 0.00 | 0.00 | 41 | 1014.7 |
| 20260503180421 | 57 | 1 | 4.3 | 12.2 | 0.00 | 0.00 | 0.00 | 41 | 1014.6 |
| 20260503175916 | 60 | 1 | 3.5 | 5.2 | 0.00 | 0.00 | 0.00 | 40 | 1014.9 |
| 20260503175414 | 58 | 187 | 2.6 | 11.3 | 0.00 | 0.00 | 0.00 | 39 | 1015.0 |
| 20260503174909 | 58 | 114 | 0.0 | 4.3 | 0.00 | 0.00 | 0.00 | 45 | 1015.1 |
| 20260503174408 | 57 | 184 | 2.6 | 6.1 | 0.00 | 0.00 | 0.00 | 42 | 1015.0 |
| 20260503173903 | 58 | 351 | 2.6 | 4.3 | 0.00 | 0.00 | 0.00 | 44 | 1015.2 |
| 20260503173400 | 57 | 189 | 0.0 | 5.2 | 0.00 | 0.00 | 0.00 | 42 | 1015.0 |
| 20260503172856 | 56 | 334 | 2.6 | 7.8 | 0.00 | 0.00 | 0.00 | 40 | 1015.2 |
| 20260503172354 | 56 | 7 | 3.5 | 7.8 | 0.00 | 0.00 | 0.00 | 44 | 1015.3 |
| 20260503171850 | 55 | 329 | 1.7 | 6.1 | 0.00 | 0.00 | 0.00 | 43 | 1015.3 |
| 20260503171347 | 55 | 9 | 2.6 | 7.8 | 0.00 | 0.00 | 0.00 | 42 | 1015.3 |
| 20260503170845 | 56 | 283 | 3.5 | 7.0 | 0.00 | 0.00 | 0.00 | 42 | 1015.5 |
| 20260503170341 | 56 | 171 | 4.3 | 7.8 | 0.00 | 0.00 | 0.00 | 40 | 1015.4 |
| 20260503150733 | 50 | 173 | 1.7 | 6.1 | 0.00 | 0.00 | 0.00 | 42 | 1016.4 |
| 20260503150229 | 49 | 219 | 2.6 | 7.8 | 0.00 | 0.00 | 0.00 | 46 | 1016.4 |
| 20260503140153 | 48 | 176 | 4.3 | 6.1 | 0.00 | 0.00 | 0.00 | 56 | 1016.8 |
| 20260503131123 | 44 | 161 | 0.0 | 5.2 | 0.00 | 0.00 | 0.00 | 72 | 1016.9 |
| 20260503130621 | 43 | 202 | 0.9 | 5.2 | 0.00 | 0.00 | 0.00 | 73 | 1016.9 |
| 20260503130118 | 43 | 103 | 1.7 | 4.3 | 0.00 | 0.00 | 0.00 | 74 | 1017.0 |
| 20260503110510 | 34 | 77 | 0.0 | 1.7 | 0.00 | 0.00 | 0.00 | 91 | 1015.9 |
| 20260503090356 | 34 | 113 | 0.0 | 1.7 | 0.00 | 0.00 | 0.00 | 91 | 1015.2 |
| 20260503081323 | 33 | 111 | 0.0 | 1.7 | 0.00 | 0.00 | 0.00 | 91 | 1015.2 |
| 20260503080819 | 33 | 130 | 0.0 | 1.7 | 0.00 | 0.00 | 0.00 | 90 | 1015.2 |
| 20260503080317 | 33 | 123 | 0.9 | 1.7 | 0.00 | 0.00 | 0.00 | 90 | 1015.1 |
| 20260503072748 | 35 | 62 | 0.0 | 0.9 | 0.00 | 0.00 | 0.00 | 88 | 1015.1 |
| 20260503072245 | 35 | 19 | 0.0 | 1.7 | 0.00 | 0.00 | 0.00 | 88 | 1015.0 |
| 20260503071741 | 35 | 113 | 0.0 | 1.7 | 0.00 | 0.00 | 0.00 | 88 | 1015.0 |
| 20260503071238 | 36 | 126 | 0.0 | 1.7 | 0.00 | 0.00 | 0.00 | 87 | 1015.1 |
| 20260503070734 | 36 | 78 | 0.0 | 1.7 | 0.00 | 0.00 | 0.00 | 87 | 1015.0 |
| 20260503070232 | 37 | 80 | 0.0 | 0.9 | 0.00 | 0.00 | 0.00 | 87 | 1015.1 |
| 20260503060151 | 35 | 89 | 0.0 | 1.7 | 0.00 | 0.00 | 0.00 | 93 | 1015.0 |
| 20260503054638 | 35 | 126 | 0.0 | 0.9 | 0.00 | 0.00 | 0.00 | 92 | 1015.4 |
| 20260503054136 | 35 | 126 | 0.0 | 0.9 | 0.00 | 0.00 | 0.00 | 92 | 1015.2 |
| 20260503053633 | 35 | 113 | 0.0 | 0.9 | 0.00 | 0.00 | 0.00 | 92 | 1015.3 |
| 20260503053132 | 35 | 124 | 0.0 | 0.9 | 0.00 | 0.00 | 0.00 | 92 | 1015.2 |
| 20260503052628 | 35 | 89 | 0.0 | 1.7 | 0.00 | 0.00 | 0.00 | 92 | 1015.4 |
| 20260503052124 | 35 | 113 | 0.0 | 0.9 | 0.00 | 0.00 | 0.00 | 92 | 1015.3 |
| 20260503051620 | 35 | 50 | 0.0 | 1.7 | 0.00 | 0.00 | 0.00 | 92 | 1015.5 |
| 20260503051118 | 35 | 55 | 0.0 | 1.7 | 0.00 | 0.00 | 0.00 | 92 | 1015.2 |
| 20260503050614 | 35 | 98 | 0.0 | 1.7 | 0.00 | 0.00 | 0.00 | 91 | 1015.3 |
| 20260503050111 | 35 | 160 | 0.0 | 1.7 | 0.00 | 0.00 | 0.00 | 91 | 1015.5 |
| 20260503045609 | 36 | 52 | 0.0 | 1.7 | 0.00 | 0.00 | 0.00 | 91 | 1015.6 |
| 20260503045105 | 36 | 56 | 0.0 | 1.7 | 0.00 | 0.00 | 0.00 | 91 | 1015.3 |
| 20260503044602 | 36 | 135 | 0.0 | 1.7 | 0.00 | 0.00 | 0.00 | 91 | 1015.4 |
| 20260503044100 | 35 | 124 | 0.0 | 0.9 | 0.00 | 0.00 | 0.00 | 91 | 1015.6 |
| 20260503043555 | 36 | 23 | 0.0 | 2.6 | 0.00 | 0.00 | 0.00 | 91 | 1015.5 |
| 20260503043053 | 36 | 146 | 1.7 | 2.6 | 0.00 | 0.00 | 0.00 | 92 | 1015.6 |
| 20260503042549 | 36 | 198 | 0.0 | 1.7 | 0.00 | 0.00 | 0.00 | 92 | 1015.8 |
| 20260503042046 | 35 | 120 | 0.0 | 1.7 | 0.00 | 0.00 | 0.00 | 93 | 1015.6 |
| 20260503041543 | 35 | 178 | 0.0 | 2.6 | 0.00 | 0.00 | 0.00 | 93 | 1015.6 |
| 20260503041040 | 34 | 124 | 0.0 | 2.6 | 0.00 | 0.00 | 0.00 | 93 | 1015.5 |
| 20260503040537 | 34 | 42 | 0.0 | 1.7 | 0.00 | 0.00 | 0.00 | 92 | 1015.6 |
| 20260503040034 | 34 | 29 | 0.0 | 0.9 | 0.00 | 0.00 | 0.00 | 92 | 1015.6 |
| 20260503035532 | 34 | 70 | 0.0 | 1.7 | 0.00 | 0.00 | 0.00 | 91 | 1015.6 |
| 20260503035029 | 34 | 45 | 0.0 | 1.7 | 0.00 | 0.00 | 0.00 | 91 | 1015.5 |
| 20260503034526 | 34 | 10 | 0.0 | 1.7 | 0.00 | 0.00 | 0.00 | 90 | 1015.8 |
| 20260503034023 | 34 | 85 | 0.0 | 1.7 | 0.00 | 0.00 | 0.00 | 90 | 1015.8 |
| 20260503033520 | 34 | 46 | 0.0 | 1.7 | 0.00 | 0.00 | 0.00 | 90 | 1015.5 |
| 20260503033018 | 34 | 53 | 1.7 | 2.6 | 0.00 | 0.00 | 0.00 | 91 | 1015.7 |
| 20260503032516 | 34 | 0 | 0.0 | 1.7 | 0.00 | 0.00 | 0.00 | 90 | 1015.6 |
| 20260503032014 | 35 | 19 | 0.9 | 1.7 | 0.00 | 0.00 | 0.00 | 89 | 1015.5 |
| 20260503031512 | 35 | 77 | 0.0 | 1.7 | 0.00 | 0.00 | 0.00 | 87 | 1015.6 |
| 20260503031008 | 36 | 49 | 0.0 | 1.7 | 0.00 | 0.00 | 0.00 | 86 | 1015.6 |